Time,TemperatureF,DewpointF,PressureIn,WindDirection,WindDirectionDegrees,WindSpeedMPH,WindSpeedGustMPH,Humidity,HourlyPrecipIn,Conditions,Clouds,dailyrainin,SoftwareType,DateUTC
2015-06-03 00:31:00,71.0,-99.9,29.94,ESE,119,2.0,4.0,-999,-99.99,,,-99.99,,2015-06-03 04:31:00,
2015-06-03 00:43:00,71.0,-99.9,29.94,East,101,4.0,7.0,-999,-99.99,,,-99.99,,2015-06-03 04:43:00,
2015-06-03 01:03:00,71.0,-99.9,29.93,East,87,3.0,5.0,-999,-99.99,,,-99.99,,2015-06-03 05:03:00,
2015-06-03 01:11:00,70.0,-99.9,29.94,East,100,2.0,5.0,-999,-99.99,,,-99.99,,2015-06-03 05:11:00,
2015-06-03 01:21:00,70.0,-99.9,29.94,East,99,2.0,3.0,-999,-99.99,,,-99.99,,2015-06-03 05:21:00,
2015-06-03 01:52:00,71.0,-99.9,29.95,South,184,2.0,5.0,-999,-99.99,,,-99.99,,2015-06-03 05:52:00,
2015-06-03 02:04:00,71.0,-99.9,29.95,SSE,165,4.0,6.0,-999,-99.99,,,-99.99,,2015-06-03 06:04:00,
2015-06-03 02:11:00,71.0,-99.9,29.95,SSE,163,2.0,5.0,-999,-99.99,,,-99.99,,2015-06-03 06:11:00,
2015-06-03 02:22:00,71.0,-99.9,29.94,SSE,161,2.0,4.0,-999,-99.99,,,-99.99,,2015-06-03 06:22:00,
2015-06-03 02:32:00,71.0,-99.9,29.94,ENE,71,1.0,2.0,-999,-99.99,,,-99.99,,2015-06-03 06:32:00,
2015-06-03 02:42:00,71.0,-99.9,29.94,North,355,-999.9,3.0,-999,-99.99,,,-99.99,,2015-06-03 06:42:00,
2015-06-03 02:52:00,71.0,-99.9,29.93,North,8,1.0,3.0,-999,-99.99,,,-99.99,,2015-06-03 06:52:00,
2015-06-03 03:03:00,72.0,-99.9,29.93,WSW,238,-999.9,1.0,-999,-99.99,,,-99.99,,2015-06-03 07:03:00,
2015-06-03 03:11:00,72.0,-99.9,29.93,NNW,348,6.0,7.0,-999,-99.99,,,-99.99,,2015-06-03 07:11:00,
2015-06-03 03:21:00,72.0,-99.9,29.93,NNW,348,6.0,7.0,-999,-99.99,,,-99.99,,2015-06-03 07:21:00,
2015-06-03 03:31:00,72.0,-99.9,29.93,NNW,348,6.0,7.0,-999,-99.99,,,-99.99,,2015-06-03 07:31:00,
2015-06-03 03:42:00,72.0,-99.9,29.93,NNW,348,6.0,7.0,-999,-99.99,,,-99.99,,2015-06-03 07:42:00,
2015-06-03 04:03:00,71.0,-99.9,29.93,NE,50,2.0,3.0,-999,-99.99,,,-99.99,,2015-06-03 08:03:00,
2015-06-03 04:52:00,70.0,-99.9,29.92,ENE,74,4.0,8.0,-999,-99.99,,,-99.99,,2015-06-03 08:52:00,
2015-06-03 05:03:00,71.0,-99.9,29.92,ENE,68,6.0,8.0,-999,-99.99,,,-99.99,,2015-06-03 09:03:00,
2015-06-03 05:11:00,70.0,-99.9,29.91,ENE,71,5.0,9.0,-999,-99.99,,,-99.99,,2015-06-03 09:11:00,
2015-06-03 05:43:00,70.0,-99.9,29.91,East,82,3.0,6.0,-999,-99.99,,,-99.99,,2015-06-03 09:43:00,
2015-06-03 06:03:00,71.0,-99.9,29.90,ENE,69,6.0,8.0,-999,-99.99,,,-99.99,,2015-06-03 10:03:00,
2015-06-03 06:42:00,70.0,-99.9,29.90,East,100,6.0,10.0,-999,-99.99,,,-99.99,,2015-06-03 10:42:00,
2015-06-03 07:32:00,69.0,-99.9,29.91,East,86,5.0,7.0,-999,-99.99,,,-99.99,,2015-06-03 11:32:00,
2015-06-03 07:42:00,71.0,-99.9,29.91,ENE,63,5.0,8.0,-999,-99.99,,,-99.99,,2015-06-03 11:42:00,
2015-06-03 07:52:00,71.0,-99.9,29.91,NE,54,6.0,8.0,-999,-99.99,,,-99.99,,2015-06-03 11:52:00,
2015-06-03 08:04:00,71.0,-99.9,29.92,NE,49,6.0,9.0,-999,-99.99,,,-99.99,,2015-06-03 12:04:00,
2015-06-03 08:12:00,71.0,-99.9,29.92,East,79,5.0,8.0,-999,-99.99,,,-99.99,,2015-06-03 12:12:00,
2015-06-03 08:32:00,72.0,-99.9,29.92,NE,56,5.0,6.0,-999,-99.99,,,-99.99,,2015-06-03 12:32:00,
2015-06-03 08:53:00,72.0,-99.9,29.92,NE,43,8.0,10.0,-999,-99.99,,,-99.99,,2015-06-03 12:53:00,
2015-06-03 09:02:00,72.0,-99.9,29.92,NE,56,7.0,10.0,-999,-99.99,,,-99.99,,2015-06-03 13:02:00,
2015-06-03 10:03:00,74.0,-99.9,29.93,NNE,30,5.0,6.0,-999,-99.99,,,-99.99,,2015-06-03 14:03:00,
2015-06-03 10:32:00,76.0,-99.9,29.93,NE,40,4.0,5.0,-999,-99.99,,,-99.99,,2015-06-03 14:32:00,
2015-06-03 10:42:00,77.0,-99.9,29.93,ESE,118,4.0,6.0,-999,-99.99,,,-99.99,,2015-06-03 14:42:00,
2015-06-03 10:53:00,78.0,-99.9,29.93,ENE,73,5.0,8.0,-999,-99.99,,,-99.99,,2015-06-03 14:53:00,
2015-06-03 11:32:00,79.0,-99.9,29.93,NE,56,3.0,6.0,-999,-99.99,,,-99.99,,2015-06-03 15:32:00,
2015-06-03 11:43:00,79.0,-99.9,29.93,NNE,29,5.0,6.0,-999,-99.99,,,-99.99,,2015-06-03 15:43:00,
2015-06-03 11:53:00,80.0,-99.9,29.93,NE,48,4.0,7.0,-999,-99.99,,,-99.99,,2015-06-03 15:53:00,
2015-06-03 12:33:00,80.0,-99.9,29.93,NE,37,4.0,7.0,-999,-99.99,,,-99.99,,2015-06-03 16:33:00,
2015-06-03 12:42:00,81.0,-99.9,29.93,North,349,5.0,6.0,-999,-99.99,,,-99.99,,2015-06-03 16:42:00,
2015-06-03 14:03:00,83.0,-99.9,29.91,North,7,4.0,5.0,-999,-99.99,,,-99.99,,2015-06-03 18:03:00,
2015-06-03 15:03:00,83.0,-99.9,29.89,NNE,32,7.0,10.0,-999,-99.99,,,-99.99,,2015-06-03 19:03:00,
2015-06-03 15:11:00,83.0,-99.9,29.89,NNE,31,6.0,7.0,-999,-99.99,,,-99.99,,2015-06-03 19:11:00,
2015-06-03 15:33:00,84.0,-99.9,29.88,NNE,30,6.0,8.0,-999,-99.99,,,-99.99,,2015-06-03 19:33:00,
2015-06-03 15:43:00,85.0,-99.9,29.88,ENE,62,7.0,13.0,-999,-99.99,,,-99.99,,2015-06-03 19:43:00,
2015-06-03 15:53:00,85.0,-99.9,29.88,ENE,63,5.0,7.0,-999,-99.99,,,-99.99,,2015-06-03 19:53:00,
2015-06-03 16:03:00,85.0,-99.9,29.88,East,79,6.0,9.0,-999,-99.99,,,-99.99,,2015-06-03 20:03:00,